EHI
8 8 6 4 2 2 2 3 3 1 0 0 0 0 0 0 0 1 3 2 1 0 0 0 0 0 0 0 0 0 0 0 0 1 2 3 2 1
8 8 6 3 2 2 2 3 4 2 1 0 0 0 0 0 0 2 3 3 1 0 0 0 0 0 0 0 0 0 0 0 0 0 1 2 1 0
8 7 6 4 4 5 4 4 5 4 2 1 0 0 0 0 0 1 2 2 2 1 0 0 0 0 0 0 0 0 0 0 0 0 0 1 0 0
9 8 6 5 6 8 8 6 5 6 4 2 1 1 0 0 0 0 1 1 1 1 0 0 0 0 0 0 0 0 0 0 0 0 0 0 0 0
10 8 7 6 7 9 10 8 7 8 7 4 3 2 1 1 1 1 1 1 1 1 1 0 0 0 0 0 0 0 0 0 0 0 0 0 0 0
9 8 7 6 6 7 8 8 7 8 8 6 5 5 4 3 3 3 3 4 4 2 1 1 1 0 0 0 0 0 0 0 0 0 0 0 0 0
11 9 7 6 4 3 4 6 5 6 8 7 6 6 4 3 4 4 5 7 7 3 1 1 1 1 0 0 0 0 0 0 0 0 0 0 0 0
13 11 9 7 5 3 2 2 2 3 5 6 5 4 4 2 2 3 4 6 6 4 1 1 1 1 1 1 0 0 0 0 0 0 0 0 0 0
13 12 10 8 8 7 4 2 3 3 3 3 3 3 3 2 2 2 3 4 4 3 2 1 0 1 1 1 0 0 0 0 0 0 0 0 0 0
12 11 10 9 10 10 8 7 6 5 2 1 2 2 2 2 2 2 2 4 5 4 3 2 1 1 1 0 0 0 0 0 0 0 0 0 0 0
11 11 10 9 8 8 9 10 8 6 2 0 1 1 1 1 1 1 2 4 4 4 4 2 1 1 1 0 0 0 0 0 0 0 0 0 0 0
10 10 9 7 5 4 7 9 8 5 3 2 1 1 1 1 1 1 2 2 2 2 2 1 0 0 0 0 0 0 1 1 0 0 0 0 0 0
10 10 8 5 2 1 3 5 5 4 4 3 1 1 2 2 2 1 1 1 1 0 0 0 0 0 1 1 0 1 2 2 1 1 1 0 0 0
10 10 7 3 0 0 0 1 2 2 3 2 1 1 1 2 1 1 0 0 0 0 0 0 0 1 1 0 0 1 3 3 2 2 2 1 1 1
7 8 6 2 0 0 0 0 1 2 3 2 0 0 0 1 1 1 0 0 1 1 0 0 0 0 0 1 1 2 3 3 2 3 3 3 2 2
4 4 3 2 1 1 2 2 2 3 2 1 0 0 1 2 2 2 1 1 2 2 1 0 0 0 0 1 2 3 3 3 3 3 4 3 3 3
3 3 4 4 5 6 7 7 6 5 3 2 1 0 2 3 3 3 2 1 2 3 2 1 1 1 1 1 1 2 3 3 3 4 4 4 3 3
4 5 6 7 9 10 11 10 8 7 5 4 2 1 1 2 2 3 2 1 2 3 2 1 2 2 2 1 1 2 3 3 3 3 4 3 3 3
4 5 7 7 8 9 10 7 5 5 5 5 4 2 2 2 1 2 3 2 2 3 3 3 3 3 3 2 2 2 2 3 3 3 3 3 3 3
2 4 5 5 5 6 6 4 2 1 3 4 4 4 4 3 2 2 4 4 3 3 4 4 4 3 3 3 2 2 2 3 3 3 3 3 3 3
4 4 4 5 4 4 4 3 1 1 1 1 1 2 3 3 3 3 4 4 3 3 4 4 4 4 3 3 3 2 3 3 3 3 3 3 3 3
6 5 5 5 5 5 5 4 3 2 2 1 1 1 1 2 2 2 3 3 3 3 3 3 4 3 3 3 3 3 3 3 3 2 2 2 2 2
6 6 5 6 6 7 6 5 4 3 3 2 2 2 2 2 1 1 2 3 3 3 3 3 3 3 3 3 3 3 3 3 3 3 2 1 1 1
Wind_Speed
2 2 3 2 3 3 3 4 4 4 2 2 1 1 1 0 1 2 2 4 5 5 5 4 3 3 3 3 4 4 3 4 4 4 5 5 5 5
1 2 3 3 2 3 3 3 4 5 4 1 1 1 1 1 2 2 2 4 5 6 6 5 4 4 3 3 3 3 3 4 4 4 4 4 5 4
2 2 2 3 3 3 3 3 4 4 4 3 1 1 1 3 1 3 3 4 3 7 6 5 5 4 4 3 3 3 3 4 5 5 4 4 4 4
2 2 2 2 2 3 2 3 3 3 4 3 2 2 3 3 2 4 4 3 3 6 7 6 5 5 5 4 4 3 3 4 4 4 5 5 5 5
3 3 2 3 3 2 3 3 3 2 3 3 3 2 2 2 3 3 4 3 5 4 8 8 8 6 6 6 5 4 4 3 4 4 5 5 5 4
3 3 3 3 2 2 2 3 3 3 3 4 3 3 2 2 3 3 3 3 4 3 2 3 6 9 8 8 7 6 5 4 4 4 5 5 5 4
3 3 3 2 2 3 3 2 2 3 3 3 3 3 2 2 3 3 3 3 3 3 3 3 3 4 6 8 8 7 6 5 5 5 5 5 5 5
4 3 3 3 3 3 2 3 4 4 4 4 4 3 3 3 3 4 4 4 4 2 4 4 3 3 3 3 5 7 7 6 6 5 5 5 6 6
3 3 4 2 3 3 4 5 4 4 5 5 4 4 3 3 3 5 4 5 5 3 4 5 3 4 4 2 7 7 7 7 7 6 6 6 6 6
4 4 4 3 3 3 4 3 4 3 4 5 4 4 3 2 4 5 5 5 6 4 4 5 4 4 3 2 7 8 7 7 7 6 6 6 6 7
5 5 5 4 1 3 5 4 4 3 3 3 2 3 3 3 4 5 4 5 5 3 3 4 4 4 4 4 5 9 9 9 8 7 7 6 7 8
4 5 4 3 2 3 5 5 5 4 3 4 4 6 6 6 7 6 6 5 5 4 2 4 4 4 4 3 3 4 6 8 9 9 8 7 7 6
4 4 3 5 4 4 6 6 4 5 5 5 4 4 4 4 5 4 5 5 5 5 3 3 5 4 4 3 3 3 3 3 5 6 8 9 8 7
5 4 2 6 6 6 6 4 3 6 6 5 4 4 4 4 3 3 4 5 6 6 6 6 6 5 5 5 4 3 3 3 4 4 4 7 8 8
4 2 1 5 6 7 7 6 6 6 5 5 5 4 4 3 3 3 4 5 6 7 6 7 7 6 6 6 5 4 3 3 4 4 4 4 4 5
5 3 5 6 6 4 5 7 6 5 5 5 5 4 4 3 4 4 4 4 5 5 5 6 7 7 6 6 5 5 4 3 3 3 4 4 4 4
3 4 4 4 5 5 4 4 5 5 5 5 5 5 4 4 4 4 4 5 5 5 4 4 5 5 6 6 5 4 4 3 3 3 4 5 4 5
5 5 5 5 5 5 4 4 4 5 5 5 5 5 5 5 5 4 4 5 6 5 4 3 3 4 5 4 4 5 4 4 3 3 5 6 5 4
6 5 4 4 4 4 4 4 4 4 4 5 5 4 5 5 5 5 5 5 5 5 4 3 3 4 5 5 4 5 5 4 4 4 5 5 5 4
5 5 4 4 4 4 4 4 5 4 4 5 5 5 5 5 5 5 5 5 5 5 4 4 4 4 5 5 4 3 5 5 4 5 5 4 4 2
4 4 4 4 4 4 4 4 5 5 4 5 5 5 5 5 5 6 5 5 6 6 5 4 2 4 5 5 5 4 3 5 4 4 5 5 5 5
5 4 4 4 4 4 4 4 4 4 4 5 5 4 5 5 6 6 6 5 6 5 5 3 3 4 5 5 6 5 4 3 3 3 4 4 4 4
5 4 4 4 4 4 4 4 5 5 5 5 5 5 5 5 5 5 5 6 6 5 5 5 4 4 5 5 6 5 5 4 4 4 3 5 6 5
Wind_Direction
247 241 266 274 263 273 270 268 275 278 262 186 221 172 200 227 125 241 238 167 194 207 211 212 212 216 223 226 228 231 230 234 232 228 223 220 217 219
273 308 295 290 290 265 261 262 268 274 285 274 218 227 288 241 179 248 245 162 193 204 203 202 203 208 212 220 227 227 229 237 235 229 224 225 219 212
241 235 261 296 288 280 268 262 260 261 263 266 225 163 246 280 254 255 241 234 188 181 193 197 198 203 211 213 215 226 232 239 241 235 229 229 224 214
236 245 255 261 267 281 286 279 275 270 257 258 250 218 221 245 256 263 259 250 251 164 184 195 199 204 212 212 214 225 234 236 234 235 234 232 229 220
232 239 250 264 270 278 275 277 271 259 251 248 246 249 241 245 250 254 264 276 268 183 188 195 200 206 210 208 209 214 222 230 232 234 238 234 227 222
237 245 253 262 268 265 252 258 269 273 253 250 246 236 234 233 254 257 253 244 266 268 233 212 194 198 205 206 207 207 209 217 224 230 235 232 222 217
236 242 246 260 319 302 300 291 272 265 262 257 253 252 247 249 258 271 273 273 256 270 264 248 216 217 202 203 205 204 206 210 215 220 227 223 216 212
238 244 234 209 199 209 268 303 301 276 277 273 264 265 270 266 274 275 277 276 271 261 282 276 269 261 242 224 168 184 201 211 217 219 219 218 213 209
237 245 251 210 202 219 209 218 238 255 271 280 280 279 272 275 278 271 278 287 291 297 276 271 262 259 255 200 156 178 197 211 219 222 222 222 220 214
237 236 243 246 236 250 248 236 237 230 242 252 275 282 283 278 263 268 273 265 262 256 257 265 261 259 261 233 171 183 196 208 215 219 220 221 222 219
240 237 240 234 213 250 247 245 245 235 212 221 268 281 297 276 272 264 258 260 265 255 238 267 274 265 255 241 192 188 196 202 207 210 211 214 220 223
229 228 214 234 205 228 244 249 250 254 257 227 222 225 229 222 229 252 261 262 269 266 222 256 268 268 261 244 232 206 204 198 200 201 203 209 219 232
242 234 207 176 208 226 253 260 265 271 255 248 241 239 235 232 232 239 255 266 270 272 268 252 272 270 270 274 258 244 236 221 208 200 199 202 209 229
252 249 206 175 206 227 238 244 253 260 254 250 250 249 249 248 246 251 253 263 270 273 277 279 274 275 272 267 266 252 235 240 238 231 217 189 203 213
266 298 232 193 207 218 219 224 232 244 251 251 251 252 255 257 258 245 238 238 247 252 248 252 259 262 265 267 270 264 253 242 240 239 233 219 222 217
246 218 195 200 223 233 210 215 231 245 254 255 256 255 251 241 243 254 259 250 246 247 236 240 245 253 257 262 265 262 257 254 244 242 247 241 238 238
260 239 228 214 219 222 225 231 236 233 239 251 257 256 254 255 254 254 258 263 262 261 251 232 228 233 247 266 267 262 260 258 252 250 253 253 245 241
241 237 232 231 235 234 233 236 239 246 252 256 258 257 256 256 254 252 250 254 261 264 264 252 229 229 233 228 247 262 261 261 256 239 253 259 254 244
233 240 238 239 242 243 241 245 249 244 249 253 252 253 258 259 254 251 249 254 259 262 262 256 248 251 254 253 224 233 259 266 262 251 245 253 262 264
244 250 244 241 241 243 248 254 257 252 244 250 255 256 256 260 259 254 251 252 257 257 252 246 245 253 263 277 278 243 230 253 262 264 259 259 263 257
245 252 253 249 244 241 245 251 256 254 254 260 259 260 258 259 263 263 259 253 257 257 255 249 244 245 263 263 257 248 219 215 250 268 269 262 257 249
252 249 249 252 250 247 245 247 252 253 251 254 258 258 261 261 261 264 266 262 255 254 257 254 225 232 243 251 258 256 244 218 203 220 255 268 278 276
258 256 253 248 246 244 247 249 255 258 254 256 260 258 261 263 265 264 264 265 262 254 252 248 239 239 245 245 252 256 248 234 231 221 218 203 208 224